BAW173 EGKK-EBBR

Flight info

Callsign BAW173
Flight time N/A
Altitude 23000
Route MIMFO Y312 DVR L18 VABIK Q70 KOK
Aircraft A320/M-SDE3FGHIRWY/LB1

Departure

Time 2026-04-14 16:23
Airport London Gatwick Airport (EGKK)

Arrival

Time N/A
Airport Brussels Airport (EBBR)
Time Latitude Longitude Altitude Speed Heading
2026-04-14 15:49 51.15360 -0.16333 211 ft 0 kts 354°
2026-04-14 16:05 51.15351 -0.16332 201 ft 3 kts 349°
2026-04-14 16:06 51.15333 -0.16323 215 ft 3 kts 317°
2026-04-14 16:06 51.15325 -0.16303 208 ft 2 kts 265°
2026-04-14 16:06 51.15325 -0.16294 208 ft 0 kts 258°
2026-04-14 16:08 51.15325 -0.16298 201 ft 1 kts 258°
2026-04-14 16:09 51.15321 -0.16326 205 ft 4 kts 258°
2026-04-14 16:09 51.15313 -0.16383 208 ft 7 kts 257°
2026-04-14 16:09 51.15303 -0.16471 201 ft 9 kts 263°
2026-04-14 16:09 51.15289 -0.16589 201 ft 12 kts 258°
2026-04-14 16:10 51.15253 -0.16648 203 ft 13 kts 182°
2026-04-14 16:10 51.15243 -0.16647 213 ft 0 kts 175°
2026-04-14 16:20 51.15242 -0.16647 201 ft 1 kts 175°
2026-04-14 16:21 51.15220 -0.16642 206 ft 5 kts 171°
2026-04-14 16:21 51.15171 -0.16635 200 ft 9 kts 188°
2026-04-14 16:21 51.15130 -0.16718 199 ft 5 kts 255°
2026-04-14 16:21 51.15130 -0.16719 199 ft 0 kts 255°
2026-04-14 16:22 51.15071 -0.17134 207 ft 74 kts 257°
2026-04-14 16:23 51.14916 -0.18251 203 ft 130 kts 257°
2026-04-14 16:23 51.14701 -0.19872 375 ft 158 kts 257°
2026-04-14 16:23 51.14530 -0.21605 1030 ft 158 kts 253°
2026-04-14 16:23 51.14305 -0.23301 1717 ft 153 kts 249°
2026-04-14 16:24 51.14077 -0.24924 2397 ft 147 kts 249°
2026-04-14 16:24 51.13857 -0.26487 3065 ft 141 kts 250°
2026-04-14 16:24 51.13749 -0.28046 3568 ft 151 kts 268°
2026-04-14 16:24 51.14043 -0.29801 3797 ft 181 kts 291°
2026-04-14 16:25 51.14930 -0.31441 4037 ft 213 kts 321°
2026-04-14 16:25 51.16423 -0.32254 4334 ft 245 kts 358°
2026-04-14 16:25 51.18079 -0.31529 5037 ft 255 kts 34°
2026-04-14 16:25 51.19212 -0.29400 5803 ft 255 kts 73°
2026-04-14 16:26 51.19636 -0.26664 6664 ft 255 kts 82°
2026-04-14 16:26 51.19964 -0.23899 7463 ft 258 kts 83°
2026-04-14 16:26 51.20290 -0.21069 8335 ft 260 kts 83°
2026-04-14 16:26 51.20633 -0.18137 8824 ft 281 kts 82°
2026-04-14 16:27 51.21022 -0.14994 9387 ft 295 kts 82°
2026-04-14 16:27 51.21440 -0.11764 10163 ft 300 kts 81°
2026-04-14 16:27 51.21882 -0.08401 10511 ft 321 kts 80°
2026-04-14 16:27 51.22356 -0.04783 10718 ft 345 kts 80°
2026-04-14 16:28 51.22856 -0.00963 11128 ft 358 kts 79°
2026-04-14 16:28 51.23371 0.02970 11638 ft 365 kts 79°
2026-04-14 16:28 51.23893 0.06955 12287 ft 370 kts 78°
2026-04-14 16:28 51.24420 0.11009 12931 ft 375 kts 78°
2026-04-14 16:29 51.24951 0.15107 13606 ft 380 kts 78°
2026-04-14 16:29 51.25333 0.19301 14191 ft 385 kts 87°
2026-04-14 16:29 51.25236 0.23585 14784 ft 388 kts 97°
2026-04-14 16:29 51.24906 0.27871 15395 ft 390 kts 97°
2026-04-14 16:30 51.24576 0.32187 15967 ft 394 kts 97°
2026-04-14 16:30 51.24241 0.36554 16577 ft 397 kts 97°
2026-04-14 16:30 51.23904 0.40926 17239 ft 399 kts 98°
2026-04-14 16:30 51.23653 0.45358 17851 ft 403 kts 91°
2026-04-14 16:31 51.23692 0.49855 18452 ft 406 kts 89°
2026-04-14 16:31 51.23747 0.54364 19051 ft 409 kts 88°
2026-04-14 16:31 51.23807 0.58930 19629 ft 413 kts 88°
2026-04-14 16:31 51.23870 0.63531 20232 ft 417 kts 88°
2026-04-14 16:32 51.23932 0.68180 20803 ft 420 kts 88°
2026-04-14 16:32 51.23989 0.72866 21338 ft 425 kts 88°
2026-04-14 16:32 51.24039 0.77599 21851 ft 429 kts 87°
2026-04-14 16:32 51.24088 0.82381 22354 ft 433 kts 87°
2026-04-14 16:33 51.24136 0.87204 22856 ft 437 kts 87°
2026-04-14 16:33 51.24180 0.92066 23084 ft 440 kts 87°
2026-04-14 16:33 51.24224 0.97031 23172 ft 452 kts 86°
2026-04-14 16:33 51.24267 1.02083 23158 ft 456 kts 86°
2026-04-14 16:34 51.24305 1.07108 23162 ft 458 kts 86°
2026-04-14 16:34 51.24340 1.12189 23161 ft 458 kts 86°
2026-04-14 16:34 51.24372 1.17272 23167 ft 458 kts 86°
2026-04-14 16:34 51.24406 1.22375 23166 ft 458 kts 86°
2026-04-14 16:35 51.24439 1.27465 23169 ft 458 kts 86°
2026-04-14 16:35 51.24470 1.32546 23169 ft 458 kts 86°
2026-04-14 16:35 51.24496 1.37641 23168 ft 458 kts 86°
2026-04-14 16:35 51.24522 1.42727 23167 ft 458 kts 86°
2026-04-14 16:36 51.24545 1.47815 23186 ft 457 kts 87°
2026-04-14 16:36 51.24565 1.52826 23192 ft 457 kts 87°
2026-04-14 16:36 51.24582 1.57893 23192 ft 456 kts 87°
2026-04-14 16:36 51.24597 1.62960 23190 ft 456 kts 87°
2026-04-14 16:37 51.24611 1.68015 23187 ft 455 kts 87°
2026-04-14 16:37 51.24624 1.73064 23187 ft 455 kts 87°
2026-04-14 16:37 51.24636 1.78113 23184 ft 455 kts 87°
2026-04-14 16:37 51.24648 1.83160 23181 ft 455 kts 87°
2026-04-14 16:38 51.24658 1.88214 23176 ft 455 kts 87°
2026-04-14 16:38 51.24662 1.93269 23190 ft 455 kts 87°
2026-04-14 16:38 51.24661 1.98323 23191 ft 455 kts 87°
2026-04-14 16:38 51.24603 2.03382 23192 ft 455 kts 90°
2026-04-14 16:39 51.24425 2.08430 23189 ft 455 kts 91°
2026-04-14 16:39 51.24164 2.13460 23188 ft 455 kts 93°
2026-04-14 16:39 51.23861 2.18489 23184 ft 455 kts 93°
2026-04-14 16:39 51.23554 2.23519 23181 ft 455 kts 93°
2026-04-14 16:40 51.23263 2.28545 23179 ft 455 kts 92°
2026-04-14 16:40 51.22923 2.33493 23175 ft 456 kts 98°
2026-04-14 16:40 51.22142 2.38402 23177 ft 458 kts 108°
2026-04-14 16:40 51.20859 2.43065 23180 ft 460 kts 117°
2026-04-14 16:41 51.19105 2.47326 23184 ft 461 kts 128°
2026-04-14 16:41 51.17035 2.51219 23184 ft 460 kts 130°
2026-04-14 16:41 51.14945 2.55078 23182 ft 460 kts 130°
2026-04-14 16:41 51.12853 2.58938 23179 ft 460 kts 129°
2026-04-14 16:42 51.10991 2.63064 23175 ft 459 kts 120°
2026-04-14 16:42 51.09568 2.67604 23177 ft 458 kts 110°
2026-04-14 16:42 51.08615 2.72415 23177 ft 455 kts 101°
2026-04-14 16:42 51.08019 2.77355 23176 ft 455 kts 98°
2026-04-14 16:43 51.07434 2.82298 23185 ft 455 kts 98°
2026-04-14 16:43 51.06839 2.87233 23204 ft 455 kts 98°
2026-04-14 16:43 51.06224 2.92260 23209 ft 454 kts 98°
2026-04-14 16:43 51.05627 2.97106 23209 ft 453 kts 98°
2026-04-14 16:44 51.05021 3.02019 23208 ft 453 kts 98°
2026-04-14 16:44 51.04417 3.06928 23205 ft 452 kts 98°
2026-04-14 16:44 51.03816 3.11836 23201 ft 452 kts 98°
2026-04-14 16:45 51.02609 3.21643 23195 ft 452 kts 98°
2026-04-14 16:45 51.01998 3.26541 23192 ft 452 kts 98°
2026-04-14 16:45 51.01387 3.31430 23192 ft 452 kts 98°
2026-04-14 16:45 51.00775 3.36317 23188 ft 451 kts 98°
2026-04-14 16:46 51.00176 3.41063 22933 ft 438 kts 98°
2026-04-14 16:46 50.99582 3.45750 22664 ft 430 kts 98°
2026-04-14 16:46 50.98993 3.50396 22399 ft 427 kts 99°
2026-04-14 16:46 50.98408 3.55007 22128 ft 425 kts 99°
2026-04-14 16:47 50.97827 3.59592 21880 ft 423 kts 99°
2026-04-14 16:47 50.97239 3.64220 21617 ft 421 kts 99°
2026-04-14 16:47 50.96656 3.68760 21367 ft 419 kts 99°
2026-04-14 16:47 50.96082 3.73228 21108 ft 418 kts 99°
2026-04-14 16:48 50.95503 3.77728 20881 ft 416 kts 100°
2026-04-14 16:48 50.94921 3.82245 20621 ft 413 kts 100°
2026-04-14 16:48 50.94344 3.86705 20372 ft 411 kts 100°
2026-04-14 16:48 50.93764 3.91141 20125 ft 410 kts 101°
2026-04-14 16:49 50.93184 3.95541 19885 ft 404 kts 101°
2026-04-14 16:49 50.92602 3.99823 19767 ft 391 kts 104°
2026-04-14 16:49 50.91574 4.03814 19641 ft 378 kts 121°
2026-04-14 16:49 50.90024 4.06964 19527 ft 365 kts 137°
2026-04-14 16:50 50.88019 4.09285 19408 ft 351 kts 154°
2026-04-14 16:50 50.85781 4.10601 19288 ft 337 kts 170°
2026-04-14 16:50 50.83500 4.10924 19167 ft 323 kts 186°
2026-04-14 16:50 50.81332 4.10354 19038 ft 310 kts 200°
2026-04-14 16:51 50.79387 4.09053 18902 ft 299 kts 213°
2026-04-14 16:51 50.77728 4.07151 18679 ft 292 kts 226°
2026-04-14 16:51 50.76413 4.04760 18394 ft 286 kts 238°
2026-04-14 16:51 50.75479 4.02011 18095 ft 283 kts 250°
2026-04-14 16:52 50.74952 3.99079 17826 ft 281 kts 262°
2026-04-14 16:52 50.74828 3.96016 17558 ft 279 kts 273°
2026-04-14 16:52 50.74997 3.92964 17287 ft 276 kts 278°
2026-04-14 16:52 50.75497 3.90065 17026 ft 273 kts 294°
2026-04-14 16:53 50.76611 3.87696 16761 ft 270 kts 320°
2026-04-14 16:53 50.78251 3.86302 16496 ft 270 kts 343°
2026-04-14 16:53 50.80109 3.86104 16245 ft 270 kts
2026-04-14 16:53 50.81299 3.86667 16076 ft 270 kts 24°
2026-04-14 16:54 50.82878 3.88270 15833 ft 269 kts 33°
2026-04-14 16:54 50.84397 3.89970 15589 ft 266 kts 33°
2026-04-14 16:54 50.85902 3.91660 15333 ft 264 kts 33°
2026-04-14 16:54 50.87400 3.93336 15085 ft 263 kts 33°
2026-04-14 16:55 50.88889 3.94997 14853 ft 261 kts 33°
2026-04-14 16:55 50.90367 3.96673 14605 ft 261 kts 38°
2026-04-14 16:55 50.91579 3.98804 14360 ft 262 kts 57°
2026-04-14 16:55 50.92315 4.01433 14121 ft 263 kts 76°
2026-04-14 16:56 50.92505 4.04305 13874 ft 262 kts 94°
2026-04-14 16:56 50.92384 4.07189 13612 ft 262 kts 94°
2026-04-14 16:56 50.92268 4.10060 13345 ft 261 kts 94°
2026-04-14 16:56 50.92153 4.12918 13083 ft 259 kts 94°
2026-04-14 16:57 50.92037 4.15767 12824 ft 258 kts 94°
2026-04-14 16:57 50.91922 4.18597 12565 ft 257 kts 94°
2026-04-14 16:57 50.91809 4.21379 12312 ft 255 kts 94°
2026-04-14 16:57 50.91694 4.24179 12072 ft 253 kts 94°
2026-04-14 16:58 50.91579 4.26918 11918 ft 245 kts 94°
2026-04-14 16:58 50.91468 4.29580 11656 ft 239 kts 93°
2026-04-14 16:58 50.91357 4.32184 11400 ft 234 kts 94°
2026-04-14 16:58 50.91249 4.34731 11151 ft 229 kts 94°
2026-04-14 16:59 50.91144 4.37227 10902 ft 225 kts 93°
2026-04-14 16:59 50.91042 4.39675 10660 ft 221 kts 93°
2026-04-14 16:59 50.90940 4.42076 10411 ft 215 kts 93°
2026-04-14 16:59 50.90841 4.44390 10178 ft 205 kts 93°
2026-04-14 17:00 50.90751 4.46478 10057 ft 177 kts 93°
2026-04-14 17:00 50.90668 4.48363 9920 ft 168 kts 93°
2026-04-14 17:00 50.90589 4.50200 9787 ft 166 kts 93°
2026-04-14 17:00 50.90510 4.52024 9654 ft 166 kts 93°
2026-04-14 17:01 50.90431 4.53840 9525 ft 165 kts 93°
2026-04-14 17:01 50.90352 4.55651 9392 ft 164 kts 93°
2026-04-14 17:01 50.90275 4.57459 9261 ft 164 kts 94°
2026-04-14 17:01 50.90196 4.59258 9129 ft 163 kts 94°
2026-04-14 17:02 50.90115 4.61050 8998 ft 163 kts 94°
2026-04-14 17:02 50.90036 4.62822 8724 ft 159 kts 94°
2026-04-14 17:02 50.89960 4.64550 8295 ft 159 kts 94°
2026-04-14 17:02 50.89882 4.66299 7886 ft 158 kts 95°
2026-04-14 17:03 50.89801 4.68030 7485 ft 157 kts 95°
2026-04-14 17:03 50.89722 4.69742 7085 ft 155 kts 95°
2026-04-14 17:03 50.89644 4.71443 6697 ft 153 kts 96°
2026-04-14 17:03 50.89567 4.73120 6281 ft 152 kts 96°
2026-04-14 17:04 50.89492 4.74787 5884 ft 151 kts 95°
2026-04-14 17:04 50.89418 4.76437 5488 ft 150 kts 95°
2026-04-14 17:04 50.89344 4.78072 5121 ft 148 kts 95°
2026-04-14 17:04 50.89272 4.79696 4757 ft 147 kts 96°
2026-04-14 17:05 50.89200 4.81302 4410 ft 146 kts 96°
2026-04-14 17:05 50.89126 4.82894 4041 ft 144 kts 97°
2026-04-14 17:05 50.89051 4.84473 3694 ft 143 kts 96°
2026-04-14 17:05 50.88978 4.86033 3372 ft 141 kts 96°
2026-04-14 17:06 50.88904 4.87586 3067 ft 141 kts 96°
2026-04-14 17:06 50.88832 4.89116 3019 ft 140 kts 96°
2026-04-14 17:06 50.88780 4.90626 2763 ft 138 kts 88°
2026-04-14 17:06 50.89176 4.92001 2319 ft 143 kts 42°
2026-04-14 17:07 50.90064 4.92665 1993 ft 141 kts 20°
2026-04-14 17:07 50.90945 4.93365 2015 ft 143 kts 31°
2026-04-14 17:07 50.91800 4.94173 2005 ft 145 kts 32°
2026-04-14 17:07 50.92768 4.94605 2000 ft 148 kts 356°
2026-04-14 17:08 50.93685 4.93946 1998 ft 148 kts 309°
2026-04-14 17:08 50.94282 4.92637 1993 ft 146 kts 311°
2026-04-14 17:08 50.95025 4.91537 2003 ft 147 kts 317°
2026-04-14 17:08 50.95803 4.90486 2006 ft 146 kts 318°
2026-04-14 17:09 50.96575 4.89438 2001 ft 146 kts 318°
2026-04-14 17:09 50.97269 4.88268 1997 ft 146 kts 299°
2026-04-14 17:09 50.97572 4.86766 2004 ft 143 kts 271°
2026-04-14 17:09 50.97414 4.85241 2001 ft 140 kts 246°
2026-04-14 17:10 50.97081 4.83786 2000 ft 140 kts 247°
2026-04-14 17:10 50.96750 4.82321 1999 ft 141 kts 248°
2026-04-14 17:10 50.96420 4.80864 2003 ft 140 kts 248°
2026-04-14 17:10 50.96090 4.79411 2003 ft 140 kts 248°
2026-04-14 17:11 50.95761 4.77961 2006 ft 140 kts 246°
2026-04-14 17:11 50.95430 4.76510 2002 ft 139 kts 246°
2026-04-14 17:11 50.95101 4.75062 2005 ft 140 kts 247°
2026-04-14 17:11 50.94770 4.73609 2001 ft 138 kts 247°
2026-04-14 17:12 50.94453 4.72218 1770 ft 134 kts 248°
2026-04-14 17:12 50.94134 4.70826 1949 ft 138 kts 248°
2026-04-14 17:12 50.93807 4.69395 2002 ft 139 kts 249°
2026-04-14 17:12 50.93479 4.67959 2008 ft 138 kts 248°
2026-04-14 17:13 50.93152 4.66530 1979 ft 138 kts 248°
2026-04-14 17:13 50.92825 4.65099 1859 ft 138 kts 247°
2026-04-14 17:13 50.92498 4.63673 1697 ft 137 kts 247°
2026-04-14 17:13 50.92172 4.62249 1518 ft 137 kts 247°
2026-04-14 17:14 50.91846 4.60829 1340 ft 137 kts 248°
2026-04-14 17:14 50.91521 4.59411 1152 ft 137 kts 248°
2026-04-14 17:14 50.91190 4.57994 960 ft 138 kts 249°
2026-04-14 17:14 50.90871 4.56566 778 ft 138 kts 248°
2026-04-14 17:15 50.90545 4.55135 583 ft 138 kts 249°
2026-04-14 17:15 50.90218 4.53700 383 ft 139 kts 248°
2026-04-14 17:15 50.89880 4.52268 220 ft 139 kts 248°
2026-04-14 17:15 50.89558 4.50860 153 ft 127 kts 248°
2026-04-14 17:16 50.89280 4.49706 147 ft 94 kts 249°